When you browse on this site, cookies collect data to enhance your experience and personalize the content and advertising you see.
Visit our Privacy Policy to learn more. By continuing to use the site, you agree to this use of cookies and data.
  • In Switzerland
  • List of Countries
  • For 7 days
  • Water Temperature
  • Weather Map
  • Weather Widgets
  • user-avatar
    Login

    Hourly Weather Trujillo

    Today, 22 October, Tuesday

    Time Temperature Precipitation Wind Pressure Humidity
    00:00 +19°C° 0.6 mm 1 mps 646 mmHg 92%
    01:00 +18°C° 0 mm 1 mps 646 mmHg 90%
    02:00 +18°C° 0.1 mm 1 mps 646 mmHg 90%
    03:00 +18°C° 0.1 mm 1 mps 645 mmHg 89%
    04:00 +18°C° 0.1 mm 1 mps 645 mmHg 89%
    05:00 +19°C° 0 mm 1 mps 646 mmHg 86%
    06:00 +18°C° 0 mm 0 mps 647 mmHg 84%
    07:00 +19°C° 0 mm 0 mps 647 mmHg 82%
    08:00 +22°C° 0.1 mm 1 mps 648 mmHg 77%
    09:00 +24°C° 0.1 mm 1 mps 648 mmHg 72%
    10:00 +25°C° 0.1 mm 1 mps 649 mmHg 67%
    11:00 +25°C° 1.1 mm 1 mps 648 mmHg 74%
    12:00 +24°C° 1.1 mm 1 mps 647 mmHg 81%
    13:00 +24°C° 1.1 mm 1 mps 646 mmHg 87%
    14:00 +21°C° 1.8 mm 0 mps 646 mmHg 89%
    15:00 +21°C° 1.8 mm 0 mps 645 mmHg 91%
    16:00 +20°C° 1.8 mm 0 mps 645 mmHg 93%
    17:00 +19°C° 0.6 mm 0 mps 645 mmHg 93%
    18:00 +18°C° 0.6 mm 0 mps 645 mmHg 94%
    19:00 +19°C° 0.6 mm 1 mps 645 mmHg 95%
    20:00 +19°C° 0.1 mm 1 mps 645 mmHg 94%
    21:00 +19°C° 0.1 mm 1 mps 646 mmHg 94%
    22:00 +18°C° 0.1 mm 1 mps 646 mmHg 93%
    23:00 +18°C° 0 mm 1 mps 646 mmHg 93%

    Tomorrow, 23 October, Wednesday

    Time Temperature Precipitation Wind Pressure Humidity
    00:00 +18°C° 0 mm 1 mps 645 mmHg 92%
    01:00 +18°C° 0 mm 1 mps 645 mmHg 92%
    02:00 +18°C° 0 mm 1 mps 645 mmHg 92%
    03:00 +18°C° 0 mm 1 mps 645 mmHg 92%
    04:00 +16°C° 0 mm 1 mps 645 mmHg 91%
    05:00 +18°C° 0 mm 1 mps 645 mmHg 89%
    06:00 +19°C° 0 mm 1 mps 646 mmHg 87%
    07:00 +18°C° 0 mm 0 mps 646 mmHg 85%
    08:00 +22°C° 0 mm 1 mps 647 mmHg 76%
    09:00 +24°C° 0 mm 1 mps 648 mmHg 68%
    10:00 +26°C° 0 mm 1 mps 649 mmHg 59%
    11:00 +25°C° 0.4 mm 1 mps 648 mmHg 64%
    12:00 +25°C° 0.4 mm 1 mps 647 mmHg 69%
    13:00 +25°C° 0.4 mm 1 mps 646 mmHg 74%
    14:00 +24°C° 1 mm 1 mps 645 mmHg 80%
    15:00 +23°C° 1 mm 1 mps 645 mmHg 86%
    16:00 +20°C° 1 mm 0 mps 645 mmHg 91%
    17:00 +19°C° 0.4 mm 0 mps 645 mmHg 92%
    18:00 +20°C° 0.4 mm 1 mps 645 mmHg 93%
    19:00 +20°C° 0.4 mm 1 mps 645 mmHg 94%
    20:00 +19°C° 0.1 mm 1 mps 645 mmHg 93%
    21:00 +19°C° 0.1 mm 1 mps 646 mmHg 92%
    22:00 +18°C° 0.1 mm 1 mps 646 mmHg 91%
    23:00 +18°C° 0 mm 1 mps 645 mmHg 88%

    Day after tomorrow, 24 October, Thursday

    Time Temperature Precipitation Wind Pressure Humidity
    00:00 +18°C° 0 mm 1 mps 645 mmHg 86%
    01:00 +16°C° 0 mm 1 mps 644 mmHg 84%
    02:00 +16°C° 0 mm 1 mps 644 mmHg 81%
    03:00 +16°C° 0 mm 1 mps 644 mmHg 79%
    04:00 +16°C° 0 mm 1 mps 644 mmHg 76%
    05:00 +18°C° 0 mm 1 mps 645 mmHg 75%
    06:00 +19°C° 0 mm 1 mps 646 mmHg 73%
    07:00 +20°C° 0 mm 1 mps 647 mmHg 72%
    08:00 +22°C° 0 mm 1 mps 647 mmHg 68%
    09:00 +24°C° 0 mm 1 mps 648 mmHg 64%
    10:00 +25°C° 0 mm 1 mps 649 mmHg 60%
    11:00 +25°C° 0.4 mm 1 mps 648 mmHg 65%
    12:00 +25°C° 0.4 mm 1 mps 647 mmHg 71%
    13:00 +25°C° 0.4 mm 1 mps 646 mmHg 76%
    14:00 +24°C° 1.3 mm 1 mps 646 mmHg 82%
    15:00 +23°C° 1.3 mm 1 mps 645 mmHg 87%
    16:00 +20°C° 1.3 mm 0 mps 645 mmHg 93%
    17:00 +21°C° 0.7 mm 1 mps 645 mmHg 94%
    18:00 +20°C° 0.7 mm 1 mps 645 mmHg 95%
    19:00 +19°C° 0.7 mm 1 mps 645 mmHg 95%
    20:00 +19°C° 0.4 mm 1 mps 645 mmHg 94%
    21:00 +19°C° 0.4 mm 1 mps 645 mmHg 93%
    22:00 +18°C° 0.4 mm 1 mps 646 mmHg 91%
    23:00 +18°C° 0.1 mm 1 mps 645 mmHg 91%

    25 October, Friday

    Time Temperature Precipitation Wind Pressure Humidity
    00:00 +18°C° 0.1 mm 1 mps 645 mmHg 91%
    01:00 +16°C° 0.1 mm 1 mps 645 mmHg 91%
    02:00 +16°C° 0.1 mm 1 mps 645 mmHg 90%
    03:00 +16°C° 0.1 mm 1 mps 645 mmHg 89%
    04:00 +16°C° 0.1 mm 1 mps 645 mmHg 87%
    05:00 +18°C° 0 mm 1 mps 646 mmHg 85%
    06:00 +19°C° 0 mm 1 mps 646 mmHg 83%
    07:00 +20°C° 0 mm 1 mps 647 mmHg 81%
    08:00 +22°C° 0.1 mm 1 mps 648 mmHg 77%
    09:00 +23°C° 0.1 mm 1 mps 648 mmHg 73%
    10:00 +24°C° 0.1 mm 1 mps 648 mmHg 69%
    11:00 +25°C° 0.4 mm 1 mps 648 mmHg 71%
    12:00 +25°C° 0.4 mm 1 mps 647 mmHg 72%
    13:00 +25°C° 0.4 mm 1 mps 646 mmHg 73%
    14:00 +24°C° 0.8 mm 1 mps 646 mmHg 79%
    15:00 +23°C° 0.8 mm 1 mps 645 mmHg 85%
    16:00 +21°C° 0.8 mm 0 mps 645 mmHg 91%
    17:00 +21°C° 0.5 mm 1 mps 645 mmHg 92%
    18:00 +20°C° 0.5 mm 1 mps 645 mmHg 93%
    19:00 +19°C° 0.5 mm 1 mps 645 mmHg 95%
    20:00 +19°C° 0.2 mm 1 mps 645 mmHg 94%
    21:00 +18°C° 0.2 mm 1 mps 646 mmHg 93%
    22:00 +17°C° 0.2 mm 2 mps 646 mmHg 92%
    23:00 +18°C° 0 mm 1 mps 645 mmHg 90%

    26 October, Saturday

    Time Temperature Precipitation Wind Pressure Humidity
    00:00 +18°C° 0 mm 1 mps 645 mmHg 89%
    01:00 +18°C° 0 mm 1 mps 645 mmHg 88%
    02:00 +18°C° 0.1 mm 1 mps 645 mmHg 86%
    03:00 +18°C° 0.1 mm 1 mps 645 mmHg 85%
    04:00 +18°C° 0.1 mm 1 mps 645 mmHg 83%
    05:00 +19°C° 0 mm 1 mps 646 mmHg 82%
    06:00 +20°C° 0 mm 1 mps 646 mmHg 80%
    07:00 +19°C° 0 mm 0 mps 647 mmHg 78%
    08:00 +22°C° 0 mm 1 mps 648 mmHg 74%
    09:00 +24°C° 0 mm 1 mps 648 mmHg 69%
    10:00 +26°C° 0 mm 1 mps 649 mmHg 64%
    11:00 +25°C° 0.7 mm 1 mps 648 mmHg 69%
    12:00 +25°C° 0.7 mm 1 mps 647 mmHg 74%
    13:00 +25°C° 0.7 mm 1 mps 646 mmHg 79%
    14:00 +24°C° 1.4 mm 1 mps 646 mmHg 83%
    15:00 +24°C° 1.4 mm 1 mps 645 mmHg 87%
    16:00 +21°C° 1.4 mm 0 mps 645 mmHg 91%
    17:00 +22°C° 0.6 mm 1 mps 645 mmHg 92%
    18:00 +21°C° 0.6 mm 1 mps 645 mmHg 93%
    19:00 +20°C° 0.6 mm 1 mps 645 mmHg 95%
    20:00 +19°C° 0.1 mm 1 mps 645 mmHg 94%
    21:00 +19°C° 0.1 mm 1 mps 646 mmHg 93%
    22:00 +19°C° 0.1 mm 1 mps 646 mmHg 92%
    23:00 +19°C° 0 mm 1 mps 646 mmHg 91%

    27 October, Sunday

    Time Temperature Precipitation Wind Pressure Humidity
    00:00 +19°C° 0 mm 1 mps 645 mmHg 90%
    01:00 +19°C° 0 mm 1 mps 645 mmHg 89%
    02:00 +19°C° 0.1 mm 1 mps 645 mmHg 88%
    03:00 +19°C° 0.1 mm 1 mps 645 mmHg 87%
    04:00 +18°C° 0.1 mm 1 mps 645 mmHg 86%
    05:00 +19°C° 0.1 mm 1 mps 645 mmHg 84%
    06:00 +20°C° 0.1 mm 1 mps 646 mmHg 81%
    07:00 +19°C° 0.1 mm 0 mps 647 mmHg 79%
    08:00 +22°C° 0 mm 1 mps 647 mmHg 75%
    09:00 +24°C° 0 mm 1 mps 648 mmHg 71%
    10:00 +25°C° 0 mm 1 mps 648 mmHg 67%
    11:00 +25°C° 0.8 mm 1 mps 647 mmHg 72%
    12:00 +25°C° 0.8 mm 1 mps 647 mmHg 77%
    13:00 +25°C° 0.8 mm 1 mps 646 mmHg 82%
    14:00 +24°C° 1.4 mm 1 mps 645 mmHg 86%
    15:00 +23°C° 1.4 mm 1 mps 645 mmHg 89%
    16:00 +23°C° 1.4 mm 1 mps 644 mmHg 93%
    17:00 +22°C° 0.7 mm 1 mps 645 mmHg 94%
    18:00 +21°C° 0.7 mm 1 mps 645 mmHg 94%
    19:00 +20°C° 0.7 mm 1 mps 645 mmHg 95%
    20:00 +18°C° 0 mm 2 mps 645 mmHg 94%
    21:00 +18°C° 0 mm 2 mps 645 mmHg 93%
    22:00 +18°C° 0 mm 2 mps 645 mmHg 92%
    23:00 +17°C° 0 mm 2 mps 645 mmHg 91%

    28 October, Monday

    Time Temperature Precipitation Wind Pressure Humidity
    00:00 +18°C° 0 mm 1 mps 645 mmHg 90%
    01:00 +18°C° 0 mm 1 mps 645 mmHg 89%
    02:00 +18°C° 0 mm 1 mps 645 mmHg 89%
    03:00 +18°C° 0 mm 1 mps 645 mmHg 88%
    04:00 +18°C° 0 mm 1 mps 645 mmHg 87%
    05:00 +19°C° 0 mm 1 mps 645 mmHg 85%
    06:00 +20°C° 0 mm 1 mps 646 mmHg 83%
    07:00 +21°C° 0 mm 1 mps 647 mmHg 81%
    08:00 +22°C° 0 mm 1 mps 647 mmHg 75%
    09:00 +24°C° 0 mm 1 mps 648 mmHg 69%
    10:00 +26°C° 0 mm 1 mps 648 mmHg 63%
    11:00 +26°C° 0.4 mm 1 mps 648 mmHg 67%
    12:00 +25°C° 0.4 mm 1 mps 647 mmHg 71%
    13:00 +25°C° 0.4 mm 1 mps 646 mmHg 75%
    14:00 +24°C° 1.1 mm 1 mps 646 mmHg 81%
    15:00 +24°C° 1.1 mm 1 mps 645 mmHg 86%
    16:00 +21°C° 1.1 mm 0 mps 645 mmHg 91%
    17:00 +22°C° 0.6 mm 1 mps 645 mmHg 93%
    18:00 +21°C° 0.6 mm 1 mps 645 mmHg 94%
    19:00 +20°C° 0.6 mm 1 mps 645 mmHg 95%
    20:00 +19°C° 0.1 mm 1 mps 645 mmHg 94%
    21:00 +19°C° 0.1 mm 1 mps 645 mmHg 93%
    22:00 +18°C° 0.1 mm 2 mps 645 mmHg 92%
    23:00 +19°C° 0 mm 1 mps 645 mmHg 90%
    Show more